Terminal Aerodrome Forecast
Issued by NWS Quad Cities IA IL

Home | Current Version | Previous Version | Text Only | Print | Product List | Glossary On
Versions: 1 2 3 4 5 6 7 8 9 10 11 12 13 14 15 16 17 18
000
FTUS43 KDVN 160900 AAA
TAFDBQ
TAF AMD
KDBQ 160908Z 1609/1706 36003KT P6SM SKC
      TEMPO 1609/1612 3SM BR
     FM161500 26005KT P6SM SKC=

USA.gov is the U.S. government's official web portal to all federal, state and local government web resources and services.